星链-1591 (STARLINK-1591 )

导读 | 豆包AI

STARLINK-1591是美国SpaceX公司星链星座的成员,于2020年8月7日发射。它运行在近地轨道,属于星链低轨互联网卫星星座组网的一部分,主要目标是为全球,尤其是偏远和网络欠覆盖地区提供高速低延迟宽带互联网服务,助力星链实现全球无缝网络覆盖的目标。

基本信息
目录编号:
46045
目录名称:
STARLINK-1591
国际标识:
2020-055U
轨道中心:
EARTH
卫星名称:
星链-1591
卫星全名:
星链-1591 (STARLINK-1591 )
卫星状态:
在轨 (已飞行2066 天)
发射日期:
2020-08-07 UTC
国别 :
美国 (US)
星等 :
--
轨道信息
数据来源 国际轨道数据
星历时间: 2026-04-03T11:40:46+0800
23小时前
查看轨道信息
半长轴: 6853.35km
偏心率: 0.0001673
轨道倾角: 53.163°
近地点辐角 93.531°
升交点赤经 13.078°
平近点角 266.589°
近地点: 474.066km
远地点: 476.36km
周期: 94.105分钟
每日圈数: 15.302008
详细信息
固有亮度:
5
最大亮度:
2.5
卫星平台:
Starlink V1.0
覆盖范围:
全球
运营商:
太空探索技术公司
运营商所在国:
美国
制造商(研发单位):
太空探索技术公司
制造商所在国:
美国
使用方式:
暂无
卫星简介
星链(Starlink)计划是由太空探索技术公司(SpaceX)提出的一个巨型低轨卫星互联网星座项目,计划在2019年至2024年间在太空搭建由约1.2万颗卫星组成的“星链”网络,其中1584颗将部署在地球上空550千米处的近地轨道,并从2020年开始工作。该卫星仍在工作。
2D轨道图
3D轨道图
轨道高度分析图
轨道倾角分析图
轨道综合分析图
查看轨道综合分析图